Location: Unspecified
(0.0000°N, 0.0000°E)
Time: 08:34:11
(UTC+00:00)

Vanguard 2 Rocket - Pass Details

Date: 12 December 2017
Orbit: 553 x 3328 km, 32.9° (Epoch: 20 June)

Event Time Altitude Azimuth Distance (km) Brightness Sun altitude
Rises 14:53:03 0° 219° (SW) 3,060 10.4 40.7°
Reaches altitude 10° 14:55:08 10° 210° (SSW) 2,320 9.9 40.3°
Maximum altitude 15:00:15 42° 139° (SE) 1,446 8.3 39.2°
Drops below altitude 10° 15:08:37 10° 71° (ENE) 3,800 9.7 37.4°
Sets 15:13:00 0° 66° (ENE) 5,280 10.3 36.4°
